Location: Unspecified
(43.4680°N, 87.1740°E)
Time: 12:07:43
(UTC+00:00)

ATLAS 5 CENTAUR R/B - Pass Details

Date: 17 April 2021
Orbit: 516 x 1141 km, 63.3° (Epoch: 02 May)

Event Time Altitude Azimuth Distance (km) Brightness Sun altitude
Rises 21:34:59 0° 317° (NW) 3,331 5.2 -18.6°
Reaches altitude 10° 21:37:22 10° 310° (NW) 2,490 4.5 -18.3°
Maximum altitude 21:42:52 43° 241° (WSW) 1,319 2.7 -17.4°
Drops below altitude 10° 21:49:11 10° 173° (S) 2,859 4.7 -16.5°
Sets 21:52:06 0° 167° (SSE) 3,876 5.4 -16.1°
